Prescott, AZ

8:11 PM MST on November 11, 2019 (GMT -0700)
Love

Weather History for KPRC - September, 2019

Change the Weather History Date:

Monday, September 9, 2019

  Actual Average Record
Temperature  
Mean Temperature 68 °F 70 °F  
Max Temperature 81 °F 84 °F 93 °F (1977)
Min Temperature 55 °F 56 °F 47 °F (1973)
Degree Days  
Heating Degree Days 0    
Month to date heating degree days 0  
Since 1 July heating degree days 0  
Cooling Degree Days 3    
Month to date cooling degree days 103  
Year to date cooling degree days 1078  
Growing Degree Days 18 (Base 50)    
Moisture  
Dew Point 46 °F    
Average Humidity 45    
Maximum Humidity 78    
Minimum Humidity 25    
Precipitation  
Precipitation 0.00 in 0.05 in 0.62 in (1986)
Month to date precipitation 1.20 0.51  
Year to date precipitation 9.31 10.17  
Sea Level Pressure  
Sea Level Pressure 29.83 in    
Wind  
Wind Speed 8 mph ()    
Max Wind Speed 18 mph    
Max Gust Speed 25 mph    
Visibility 10.0 miles    
Events      
T = Trace of Precipitation, MM = Missing Value Source: Averaged Metar Reports

Daily Weather History Graph

Daily Weather History Graph

Search for Another Location

Airport or City:

Astronomy

Sep. 09, 2019 Rise Set
Actual Time 6:08 AM MST 6:45 PM MST
Civil Twilight 5:42 AM MST 7:10 PM MST
Nautical Twilight 5:12 AM MST 7:40 PM MST
Astronomical Twilight 4:42 AM MST 8:10 PM MST
Moon 4:32 PM MST (9/9) 1:54 AM MST (9/9)
Length of Visible Light 13h 27m
Length of Day
12h 36m
Waxing Gibbous, 83% of the Moon is Illuminated
Sep 9
Waxing Gibbous
Sep 13
Full
Sep 21
Last Quarter
Sep 28
New
Oct 5
First Quarter

Hourly Weather History & Observations

Time (MST) Temp. Dew Point Humidity Pressure Visibility Wind Dir Wind Speed Gust Speed Precip Events Conditions
12:53 AM 63.0 °F 41.0 °F 45% 29.81 in 10.0 mi South 9.2 mph - N/A   Mostly Cloudy
1:53 AM 61.0 °F 39.9 °F 46% 29.81 in 10.0 mi South 8.1 mph - N/A   Clear
2:53 AM 60.1 °F 37.0 °F 42% 29.81 in 10.0 mi SSW 8.1 mph - N/A   Clear
3:53 AM 59.0 °F 37.9 °F 46% 29.82 in 10.0 mi SSW 9.2 mph - N/A   Clear
4:53 AM 55.9 °F 39.0 °F 53% 29.83 in 10.0 mi South 6.9 mph - N/A   Clear
5:53 AM 59.0 °F 43.0 °F 55% 29.84 in 10.0 mi SE 8.1 mph - N/A   Clear
6:53 AM 59.0 °F 45.0 °F 60% 29.87 in 10.0 mi SE 5.8 mph - N/A   Partly Cloudy
7:53 AM 64.0 °F 57.0 °F 78% 29.88 in 10.0 mi SE 10.4 mph - N/A   Partly Cloudy
8:53 AM 69.1 °F 53.1 °F 57% 29.88 in 10.0 mi SE 9.2 mph - N/A   Clear
9:53 AM 73.9 °F 39.0 °F 28% 29.89 in 10.0 mi South 10.4 mph - N/A   Partly Cloudy
10:53 AM 75.9 °F 37.9 °F 25% 29.89 in 10.0 mi South 13.8 mph - N/A   Partly Cloudy
11:53 AM 77.0 °F 44.1 °F 31% 29.87 in 10.0 mi South 11.5 mph - N/A   Scattered Clouds
12:53 PM 78.1 °F 46.9 °F 33% 29.85 in 10.0 mi WSW 11.5 mph - N/A   Scattered Clouds
1:53 PM 78.1 °F 46.0 °F 32% 29.84 in 10.0 mi SW 5.8 mph 19.6 mph N/A   Scattered Clouds
2:53 PM 80.1 °F 46.0 °F 30% 29.81 in 10.0 mi South 11.5 mph 19.6 mph N/A   Partly Cloudy
3:53 PM 77.0 °F 46.0 °F 33% 29.82 in 10.0 mi South 10.4 mph - N/A   Partly Cloudy
4:53 PM 77.0 °F 46.0 °F 33% 29.81 in 10.0 mi South 15.0 mph 20.7 mph N/A   Scattered Clouds
5:53 PM 75.9 °F 48.0 °F 37% 29.80 in 10.0 mi SSW 8.1 mph - N/A   Mostly Cloudy
6:53 PM 73.9 °F 48.0 °F 40% 29.81 in 10.0 mi South 10.4 mph - N/A   Scattered Clouds
7:53 PM 72.0 °F 48.9 °F 44% 29.81 in 10.0 mi SSE 4.6 mph - N/A   Clear
8:53 PM 70.0 °F 50.0 °F 49% 29.80 in 10.0 mi SSE 5.8 mph - N/A   Clear
9:53 PM 68.0 °F 51.1 °F 55% 29.80 in 10.0 mi South 4.6 mph - N/A   Partly Cloudy
10:53 PM 66.9 °F 52.0 °F 59% 29.78 in 10.0 mi South 5.8 mph - N/A   Clear
11:53 PM 66.9 °F 52.0 °F 59% 29.79 in 10.0 mi SE 6.9 mph - N/A   Clear